Wayne, NE

5:50 AM CDT on October 21, 2017 (GMT -0500)
Wayne Municipal

Weather History for KLCG - May, 2013

Change the Weather History Date:

Monday, May 20, 2013

  Actual Average (KOFK) Record (KOFK)
Temperature  
Mean Temperature 62 °F -  
Max Temperature 71 °F 74 °F 101 °F (1934)
Min Temperature 53 °F 50 °F 29 °F (1931)
Degree Days  
Heating Degree Days 3    
Growing Degree Days 12 (Base 50)    
Moisture  
Dew Point 54 °F    
Average Humidity 76    
Maximum Humidity 100    
Minimum Humidity 48    
Precipitation  
Precipitation 0.01 in - - ()
Sea Level Pressure  
Sea Level Pressure 29.56 in    
Wind  
Wind Speed 10 mph (WSW)    
Max Wind Speed 22 mph    
Max Gust Speed 28 mph    
Visibility 10 miles    
Events Rain    
Averages and records for this station are not official NWS values.
T = Trace of Precipitation, MM = Missing Value Source: NWS Daily Summary

Daily Weather History Graph

Daily Weather History Graph

Search for Another Location

Airport or City:

Trip Planner

Search our weather history database for the weather conditions in past years. The results will help you decide how hot, cold, wet, or windy it might be!

Date:

Astronomy

May. 20, 2013 Rise Set
Actual Time 6:01 AM CDT 8:47 PM CDT
Civil Twilight 5:29 AM CDT 9:20 PM CDT
Nautical Twilight 4:48 AM CDT 10:01 PM CDT
Astronomical Twilight 4:01 AM CDT 10:49 PM CDT
Moon 3:51 PM CDT (5/20) 3:03 AM CDT (5/20)
Length of Visible Light 15h 51m
Length of Day
14h 45m
Waxing Gibbous, 75% of the Moon is Illuminated
May 20
Waxing Gibbous
May 24
Full
May 31
Last Quarter
Jun 8
New
Jun 16
First Quarter

Hourly Weather History & Observations

Time (CDT) Temp. Dew Point Humidity Pressure Visibility Wind Dir Wind Speed Gust Speed Precip Events Conditions
12:17 AM 57.2 °F 57.2 °F 100% 29.54 in 10.0 mi SW 10.4 mph 16.1 mph N/A   Clear
12:37 AM 57.2 °F 55.4 °F 94% 29.52 in 10.0 mi WSW 8.1 mph - N/A   Clear
12:57 AM 57.2 °F 55.4 °F 94% 29.52 in 10.0 mi SSW 8.1 mph - N/A   Clear
1:17 AM 57.2 °F 55.4 °F 94% 29.53 in 10.0 mi South 9.2 mph - N/A   Clear
1:37 AM 57.2 °F 55.4 °F 94% 29.53 in 10.0 mi SSW 6.9 mph - N/A   Scattered Clouds
1:57 AM 57.2 °F 55.4 °F 94% 29.53 in 10.0 mi South 9.2 mph - N/A   Clear
2:17 AM 57.2 °F 55.4 °F 94% 29.54 in 10.0 mi SSW 8.1 mph - N/A   Clear
2:37 AM 57.2 °F 55.4 °F 94% 29.53 in 10.0 mi SW 4.6 mph - N/A   Clear
2:57 AM 55.4 °F 55.4 °F 100% 29.52 in 10.0 mi Calm Calm - N/A   Clear
3:17 AM 55.4 °F 53.6 °F 94% 29.52 in 7.0 mi Calm Calm - N/A   Clear
3:37 AM 55.4 °F 53.6 °F 94% 29.51 in 5.0 mi Calm Calm - N/A   Scattered Clouds
3:57 AM 53.6 °F 53.6 °F 100% 29.52 in 5.0 mi South 5.8 mph - N/A   Mostly Cloudy
4:17 AM 57.2 °F 55.4 °F 94% 29.52 in 10.0 mi Calm Calm - N/A   Overcast
4:55 AM 57.2 °F 55.4 °F 94% 29.53 in 10.0 mi Calm Calm - N/A   Unknown
5:15 AM 57.2 °F 55.4 °F 94% 29.54 in 10.0 mi NNW 5.8 mph - N/A   Drizzle
5:35 AM 57.0 °F 55.4 °F 94% 29.54 in 10.0 mi NW 4.6 mph - N/A   Light Drizzle
5:55 AM 57.0 °F 55.4 °F 94% 29.54 in 10.0 mi WNW 5.8 mph - N/A   Overcast
6:15 AM 56.7 °F 55.0 °F 94% 29.55 in 10.0 mi NW 3.5 mph - 0.01 in   Light Drizzle
6:35 AM 56.8 °F 55.4 °F 95% 29.56 in 10.0 mi Calm Calm - 0.01 in   Overcast
6:55 AM 57.2 °F 54.9 °F 92% 29.57 in 10.0 mi WSW 4.6 mph - 0.01 in Rain Rain
7:15 AM 57.2 °F 54.9 °F 92% 29.58 in 10.0 mi WSW 4.6 mph - N/A   Overcast
7:35 AM 57.2 °F 55.0 °F 92% 29.58 in 10.0 mi SW 4.6 mph - N/A   Overcast
7:55 AM 57.6 °F 55.6 °F 93% 29.58 in 10.0 mi SW 5.8 mph - N/A   Overcast
8:15 AM 58.6 °F 56.1 °F 91% 29.59 in 10.0 mi WSW 10.4 mph - N/A   Mostly Cloudy
8:35 AM 60.3 °F 56.1 °F 86% 29.59 in 10.0 mi WSW 16.1 mph - N/A   Scattered Clouds
9:15 AM 61.5 °F 55.8 °F 81% 29.59 in 10.0 mi SW 13.8 mph 18.4 mph N/A   Mostly Cloudy
9:35 AM 62.1 °F 55.2 °F 78% 29.59 in 10.0 mi SW 12.7 mph - N/A   Mostly Cloudy
9:55 AM 62.2 °F 54.7 °F 76% 29.59 in 10.0 mi WSW 12.7 mph - N/A   Mostly Cloudy
10:35 AM 62.6 °F 54.1 °F 74% 29.59 in 10.0 mi West 15.0 mph 18.4 mph N/A   Scattered Clouds
10:55 AM 63.3 °F 54.1 °F 72% 29.59 in 10.0 mi WSW 12.7 mph 20.7 mph N/A   Scattered Clouds
11:15 AM 64.8 °F 53.2 °F 66% 29.60 in 10.0 mi West 17.3 mph 21.9 mph N/A   Scattered Clouds
11:35 AM 65.7 °F 53.6 °F 65% 29.60 in 10.0 mi WSW 16.1 mph - N/A   Scattered Clouds
11:55 AM 66.9 °F 53.2 °F 61% 29.60 in 10.0 mi SW 15.0 mph 18.4 mph N/A   Mostly Cloudy
12:15 PM 66.0 °F 53.6 °F 64% 29.60 in 10.0 mi SSW 16.1 mph - N/A   Overcast
12:35 PM 65.5 °F 53.2 °F 65% 29.60 in 10.0 mi SW 16.1 mph - N/A   Overcast
12:55 PM 66.2 °F 52.5 °F 61% 29.60 in 10.0 mi WSW 12.7 mph 18.4 mph N/A   Overcast
1:15 PM 66.7 °F 53.8 °F 63% 29.59 in 10.0 mi SW 15.0 mph 20.7 mph N/A   Overcast
1:55 PM 67.5 °F 53.8 °F 61% 29.59 in 10.0 mi SW 18.4 mph 24.2 mph N/A   Overcast
2:15 PM 66.7 °F 54.7 °F 65% 29.58 in 10.0 mi SSW 18.4 mph 24.2 mph N/A   Overcast
2:35 PM 66.6 °F 55.0 °F 66% 29.57 in 10.0 mi SW 16.1 mph - N/A   Overcast
2:55 PM 67.8 °F 55.9 °F 66% 29.57 in 10.0 mi SW 12.7 mph 19.6 mph N/A   Overcast
3:15 PM 69.6 °F 56.5 °F 63% 29.56 in 10.0 mi WSW 16.1 mph 19.6 mph N/A   Overcast
3:35 PM 69.6 °F 54.3 °F 58% 29.56 in 10.0 mi WSW 16.1 mph 23.0 mph N/A   Overcast
3:55 PM 70.3 °F 51.8 °F 52% 29.56 in 10.0 mi SW 21.9 mph 27.6 mph N/A   Overcast
4:15 PM 70.0 °F 50.9 °F 51% 29.56 in 10.0 mi SW 21.9 mph 27.6 mph N/A   Overcast
4:35 PM 71.1 °F 50.7 °F 49% 29.55 in 10.0 mi SW 18.4 mph 26.5 mph N/A   Mostly Cloudy
4:55 PM 70.0 °F 49.8 °F 49% 29.55 in 10.0 mi SW 20.7 mph 25.3 mph N/A   Overcast
5:15 PM 68.9 °F 50.0 °F 51% 29.55 in 10.0 mi SW 17.3 mph 23.0 mph N/A   Overcast
5:35 PM 69.3 °F 50.5 °F 51% 29.54 in 10.0 mi SW 12.7 mph - N/A   Overcast
5:55 PM 69.8 °F 49.1 °F 48% 29.54 in 10.0 mi WSW 13.8 mph 21.9 mph N/A   Overcast
6:15 PM 69.1 °F 48.4 °F 48% 29.54 in 10.0 mi SW 16.1 mph 24.2 mph N/A   Overcast
6:35 PM 68.0 °F 49.8 °F 52% 29.53 in 10.0 mi SW 13.8 mph - N/A   Overcast
6:55 PM 68.2 °F 49.6 °F 51% 29.52 in 10.0 mi WSW 13.8 mph - N/A   Overcast
7:15 PM 67.5 °F 49.8 °F 53% 29.53 in 10.0 mi WSW 9.2 mph - N/A   Overcast
7:35 PM 66.4 °F 50.9 °F 57% 29.53 in 10.0 mi SW 6.9 mph - N/A   Overcast
7:55 PM 65.7 °F 51.4 °F 60% 29.54 in 10.0 mi SW 5.8 mph - N/A   Overcast
8:15 PM 65.7 °F 51.1 °F 59% 29.54 in 10.0 mi WSW 6.9 mph - N/A   Overcast
8:35 PM 65.1 °F 51.8 °F 62% 29.54 in 10.0 mi West 13.8 mph - N/A   Overcast
9:15 PM 62.1 °F 55.4 °F 79% 29.55 in 10.0 mi West 12.7 mph - N/A   Overcast
9:35 PM 61.7 °F 55.6 °F 80% 29.56 in 10.0 mi West 13.8 mph - N/A   Overcast
9:55 PM 61.0 °F 55.9 °F 83% 29.56 in 10.0 mi West 9.2 mph - N/A   Overcast
10:15 PM 59.7 °F 57.2 °F 91% 29.57 in 4.0 mi West 11.5 mph 20.7 mph N/A   Overcast
10:35 PM 59.2 °F 55.8 °F 88% 29.57 in 10.0 mi NW 10.4 mph - N/A   Overcast
10:55 PM 59.0 °F 55.6 °F 88% 29.58 in 10.0 mi WNW 13.8 mph 20.7 mph N/A   Overcast
11:15 PM 58.6 °F 55.2 °F 88% 29.59 in 10.0 mi WNW 11.5 mph - N/A   Overcast
11:35 PM 58.5 °F 54.7 °F 87% 29.60 in 10.0 mi WNW 12.7 mph - N/A   Overcast
11:55 PM 58.3 °F 54.9 °F 88% 29.60 in 10.0 mi West 11.5 mph - N/A   Overcast